This is the latest recevied weather packets stored in our database for station/object OE6ACM-10. If no packets are shown the sender has not sent any weather packets the latest 10 day(s).
| Time | Temp. | Humidity | Pressure | Rain* | Wind** | Luminosity | Snow |
|---|---|---|---|---|---|---|---|
| 1777541653 | 20° C | 37% | 935.5 hPa | - | - | - | - |
| 1777541353 | 19.44° C | 36% | 935.5 hPa | - | - | - | - |
| 1777541053 | 20° C | 37% | 935.5 hPa | - | - | - | - |
| 1777540753 | 19.44° C | 39% | 935.6 hPa | - | - | - | - |
| 1777540453 | 18.89° C | 37% | 935.6 hPa | - | - | - | - |
| 1777540153 | 18.89° C | 37% | 935.7 hPa | - | - | - | - |
| 1777539853 | 18.89° C | 41% | 935.8 hPa | - | - | - | - |
| 1777539553 | 18.89° C | 41% | 935.8 hPa | - | - | - | - |
| 1777539253 | 18.33° C | 39% | 935.9 hPa | - | - | - | - |
| 1777538953 | 18.33° C | 43% | 936 hPa | - | - | - | - |
| 1777538653 | 17.78° C | 46% | 936 hPa | - | - | - | - |
| 1777538353 | 18.33° C | 49% | 935.9 hPa | - | - | - | - |
| 1777538053 | 17.78° C | 50% | 935.9 hPa | - | - | - | - |
| 1777537753 | 17.22° C | 53% | 936 hPa | - | - | - | - |
| 1777537453 | 17.22° C | 51% | 936.1 hPa | - | - | - | - |
| 1777537153 | 17.22° C | 54% | 936.1 hPa | - | - | - | - |
| 1777536853 | 16.67° C | 57% | 936.1 hPa | - | - | - | - |
| 1777536553 | 16.67° C | 57% | 936.1 hPa | - | - | - | - |
| 1777536253 | 16.11° C | 60% | 936.1 hPa | - | - | - | - |
| 1777535953 | 16.11° C | 63% | 936.1 hPa | - | - | - | - |
| 1777535653 | 15.56° C | 64% | 936.2 hPa | - | - | - | - |
| 1777535353 | 15.56° C | 68% | 936.2 hPa | - | - | - | - |
| 1777535053 | 15.56° C | 72% | 936.2 hPa | - | - | - | - |
| 1777534753 | 15° C | 74% | 936.2 hPa | - | - | - | - |
| 1777534453 | 14.44° C | 77% | 936.2 hPa | - | - | - | - |
* Rain since midnight (hover to see other rain measurements)
** Current wind speed in m/s (hover to see current wind gust speed)